When you browse on this site, cookies collect data to enhance your experience and personalize the content and advertising you see.
Visit our Privacy Policy to learn more. By continuing to use the site, you agree to this use of cookies and data.
  • In Czech Republic
  • List of Countries
  • For 7 days
  • Water Temperature
  • Weather Map
  • Weather Widgets
  • user-avatar
    Login

    Hourly Weather Río Gallegos

    Today, 7 December, Saturday

    Time Temperature Precipitation Wind Pressure Humidity
    00:00 +9°C° 0 mm 10 mps 755 mmHg 69%
    01:00 +8°C° 0 mm 9 mps 755 mmHg 72%
    02:00 +9°C° 0 mm 8 mps 755 mmHg 69%
    03:00 +9°C° 0 mm 8 mps 755 mmHg 66%
    04:00 +9°C° 0 mm 7 mps 755 mmHg 63%
    05:00 +9°C° 0 mm 8 mps 755 mmHg 59%
    06:00 +10°C° 0 mm 9 mps 755 mmHg 55%
    07:00 +11°C° 0 mm 10 mps 755 mmHg 51%
    08:00 +11°C° 0 mm 10 mps 754 mmHg 52%
    09:00 +12°C° 0 mm 11 mps 754 mmHg 53%
    10:00 +12°C° 0 mm 12 mps 753 mmHg 53%
    11:00 +12°C° 0 mm 12 mps 753 mmHg 56%
    12:00 +12°C° 0 mm 12 mps 752 mmHg 58%
    13:00 +12°C° 0 mm 13 mps 752 mmHg 61%
    14:00 +12°C° 0 mm 13 mps 751 mmHg 61%
    15:00 +12°C° 0 mm 14 mps 751 mmHg 62%
    16:00 +11°C° 0 mm 15 mps 751 mmHg 62%
    17:00 +10°C° 0.1 mm 14 mps 751 mmHg 66%
    18:00 +9°C° 0.1 mm 13 mps 752 mmHg 69%
    19:00 +8°C° 0.1 mm 13 mps 752 mmHg 73%
    20:00 +8°C° 0 mm 11 mps 752 mmHg 74%
    21:00 +8°C° 0 mm 10 mps 752 mmHg 75%
    22:00 +8°C° 0 mm 9 mps 752 mmHg 76%
    23:00 +9°C° 0 mm 8 mps 752 mmHg 76%

    Tomorrow, 8 December, Sunday

    Time Temperature Precipitation Wind Pressure Humidity
    00:00 +9°C° 0 mm 8 mps 752 mmHg 76%
    01:00 +9°C° 0 mm 7 mps 752 mmHg 76%
    02:00 +9°C° 0.1 mm 7 mps 753 mmHg 77%
    03:00 +9°C° 0.1 mm 7 mps 753 mmHg 78%
    04:00 +9°C° 0.1 mm 7 mps 753 mmHg 79%
    05:00 +9°C° 0.4 mm 8 mps 753 mmHg 75%
    06:00 +8°C° 0.4 mm 9 mps 752 mmHg 71%
    07:00 +9°C° 0.4 mm 10 mps 752 mmHg 67%
    08:00 +11°C° 0 mm 10 mps 752 mmHg 63%
    09:00 +12°C° 0 mm 10 mps 751 mmHg 59%
    10:00 +12°C° 0 mm 10 mps 751 mmHg 54%
    11:00 +12°C° 0.6 mm 8 mps 751 mmHg 61%
    12:00 +11°C° 0.6 mm 6 mps 750 mmHg 67%
    13:00 +12°C° 0.6 mm 3 mps 750 mmHg 74%
    14:00 +11°C° 1 mm 4 mps 749 mmHg 76%
    15:00 +11°C° 1 mm 4 mps 749 mmHg 78%
    16:00 +10°C° 1 mm 5 mps 748 mmHg 81%
    17:00 +10°C° 0.7 mm 6 mps 748 mmHg 81%
    18:00 +10°C° 0.7 mm 7 mps 747 mmHg 82%
    19:00 +10°C° 0.7 mm 8 mps 747 mmHg 83%
    20:00 +10°C° 0.3 mm 8 mps 746 mmHg 82%
    21:00 +10°C° 0.3 mm 8 mps 746 mmHg 81%
    22:00 +10°C° 0.3 mm 8 mps 745 mmHg 81%
    23:00 +10°C° 0 mm 8 mps 744 mmHg 77%

    Day after tomorrow, 9 December, Monday

    Time Temperature Precipitation Wind Pressure Humidity
    00:00 +11°C° 0 mm 8 mps 744 mmHg 73%
    01:00 +12°C° 0 mm 8 mps 743 mmHg 69%
    02:00 +12°C° 0 mm 8 mps 743 mmHg 67%
    03:00 +12°C° 0 mm 7 mps 742 mmHg 66%
    04:00 +12°C° 0 mm 7 mps 742 mmHg 64%
    05:00 +12°C° 0 mm 7 mps 741 mmHg 65%
    06:00 +14°C° 0 mm 7 mps 741 mmHg 65%
    07:00 +13°C° 0 mm 8 mps 741 mmHg 66%
    08:00 +14°C° 0.1 mm 10 mps 741 mmHg 56%
    09:00 +15°C° 0.1 mm 12 mps 741 mmHg 46%
    10:00 +17°C° 0.1 mm 15 mps 740 mmHg 36%
    11:00 +15°C° 0 mm 16 mps 741 mmHg 38%
    12:00 +14°C° 0 mm 16 mps 741 mmHg 39%
    13:00 +14°C° 0 mm 17 mps 741 mmHg 40%
    14:00 +12°C° 0 mm 18 mps 741 mmHg 43%
    15:00 +11°C° 0 mm 19 mps 742 mmHg 45%
    16:00 +10°C° 0 mm 20 mps 743 mmHg 48%
    17:00 +8°C° 0 mm 20 mps 744 mmHg 51%
    18:00 +7°C° 0 mm 19 mps 745 mmHg 54%
    19:00 +6°C° 0 mm 19 mps 745 mmHg 58%
    20:00 +5°C° 0 mm 18 mps 746 mmHg 60%
    21:00 +3°C° 0 mm 17 mps 747 mmHg 61%
    22:00 +3°C° 0 mm 17 mps 748 mmHg 63%
    23:00 +4°C° 0 mm 16 mps 748 mmHg 63%

    10 December, Tuesday

    Time Temperature Precipitation Wind Pressure Humidity
    00:00 +2°C° 0 mm 15 mps 749 mmHg 62%
    01:00 +2°C° 0 mm 15 mps 749 mmHg 62%
    02:00 +2°C° 0 mm 15 mps 750 mmHg 62%
    03:00 +3°C° 0 mm 14 mps 750 mmHg 62%
    04:00 +1°C° 0 mm 14 mps 751 mmHg 63%
    05:00 +3°C° 0 mm 14 mps 751 mmHg 60%
    06:00 +4°C° 0 mm 14 mps 752 mmHg 57%
    07:00 +5°C° 0 mm 14 mps 752 mmHg 54%
    08:00 +7°C° 0 mm 13 mps 752 mmHg 51%
    09:00 +8°C° 0 mm 13 mps 752 mmHg 49%
    10:00 +9°C° 0 mm 12 mps 752 mmHg 47%
    11:00 +9°C° 0 mm 11 mps 752 mmHg 46%
    12:00 +11°C° 0 mm 11 mps 752 mmHg 45%
    13:00 +11°C° 0 mm 10 mps 752 mmHg 45%
    14:00 +11°C° 0 mm 10 mps 753 mmHg 44%
    15:00 +11°C° 0 mm 10 mps 753 mmHg 44%
    16:00 +11°C° 0 mm 10 mps 753 mmHg 44%
    17:00 +10°C° 0 mm 9 mps 753 mmHg 46%
    18:00 +10°C° 0 mm 8 mps 753 mmHg 49%
    19:00 +9°C° 0 mm 8 mps 753 mmHg 51%
    20:00 +8°C° 0 mm 7 mps 754 mmHg 55%
    21:00 +7°C° 0 mm 6 mps 754 mmHg 59%
    22:00 +6°C° 0 mm 5 mps 755 mmHg 63%
    23:00 +6°C° 0 mm 4 mps 755 mmHg 66%

    11 December, Wednesday

    Time Temperature Precipitation Wind Pressure Humidity
    00:00 +5°C° 0 mm 3 mps 755 mmHg 69%
    01:00 +6°C° 0 mm 2 mps 755 mmHg 71%
    02:00 +6°C° 0 mm 2 mps 755 mmHg 72%
    03:00 +5°C° 0 mm 2 mps 755 mmHg 72%
    04:00 +4°C° 0 mm 3 mps 755 mmHg 73%
    05:00 +5°C° 0 mm 4 mps 755 mmHg 69%
    06:00 +6°C° 0 mm 5 mps 755 mmHg 66%
    07:00 +7°C° 0 mm 6 mps 755 mmHg 62%
    08:00 +8°C° 0 mm 6 mps 755 mmHg 59%
    09:00 +9°C° 0 mm 5 mps 755 mmHg 55%
    10:00 +10°C° 0 mm 5 mps 755 mmHg 51%
    11:00 +10°C° 0 mm 5 mps 756 mmHg 51%
    12:00 +10°C° 0 mm 5 mps 756 mmHg 51%
    13:00 +12°C° 0 mm 4 mps 756 mmHg 50%
    14:00 +11°C° 0 mm 4 mps 756 mmHg 53%
    15:00 +11°C° 0 mm 4 mps 756 mmHg 57%
    16:00 +11°C° 0 mm 4 mps 757 mmHg 60%
    17:00 +10°C° 0 mm 3 mps 757 mmHg 62%
    18:00 +10°C° 0 mm 3 mps 757 mmHg 64%
    19:00 +9°C° 0 mm 3 mps 758 mmHg 66%
    20:00 +9°C° 0.2 mm 3 mps 758 mmHg 69%
    21:00 +9°C° 0.2 mm 3 mps 759 mmHg 72%
    22:00 +8°C° 0.2 mm 4 mps 760 mmHg 75%
    23:00 +9°C° 0.3 mm 3 mps 760 mmHg 77%

    12 December, Thursday

    Time Temperature Precipitation Wind Pressure Humidity
    00:00 +8°C° 0.3 mm 3 mps 760 mmHg 79%
    01:00 +8°C° 0.3 mm 2 mps 760 mmHg 81%
    02:00 +8°C° 0 mm 3 mps 760 mmHg 81%
    03:00 +7°C° 0 mm 3 mps 760 mmHg 81%
    04:00 +7°C° 0 mm 3 mps 761 mmHg 81%
    05:00 +7°C° 0 mm 4 mps 761 mmHg 71%
    06:00 +8°C° 0 mm 4 mps 761 mmHg 62%
    07:00 +10°C° 0 mm 4 mps 761 mmHg 53%
    08:00 +11°C° 0 mm 4 mps 760 mmHg 49%
    09:00 +12°C° 0 mm 5 mps 760 mmHg 46%
    10:00 +13°C° 0 mm 5 mps 760 mmHg 42%
    11:00 +13°C° 0 mm 5 mps 760 mmHg 41%
    12:00 +13°C° 0 mm 4 mps 759 mmHg 41%
    13:00 +14°C° 0 mm 4 mps 759 mmHg 40%
    14:00 +14°C° 0 mm 4 mps 758 mmHg 42%
    15:00 +14°C° 0 mm 5 mps 758 mmHg 43%
    16:00 +13°C° 0 mm 5 mps 757 mmHg 45%
    17:00 +13°C° 0 mm 6 mps 757 mmHg 49%
    18:00 +11°C° 0 mm 7 mps 757 mmHg 54%
    19:00 +10°C° 0 mm 7 mps 756 mmHg 58%
    20:00 +10°C° 0 mm 8 mps 756 mmHg 60%
    21:00 +9°C° 0 mm 8 mps 756 mmHg 62%
    22:00 +8°C° 0 mm 9 mps 755 mmHg 63%
    23:00 +9°C° 0 mm 8 mps 755 mmHg 67%
    Show more